KOSEN 1
1 49402U 21102H   26053.84738656  .00009197  00000-0  37024-3 0  9993
2 49402  97.3363  98.2678 0012664 248.8529 111.1356 15.25023115236586
HO-113
1 50466U 21131B   26053.85537552  .00000353  00000-0  12298-3 0  9991
2 50466  98.4974 146.8951 0005254  85.1070 275.0719 14.41228440218647
SNUGLITE 2
1 52899U 22065F   26053.22642781  .00001173  00000-0  23263-3 0  9997
2 52899  98.2001 198.3955 0007922  32.9862 327.1833 14.64081776194178
UmKA 1 (RS40S)
1 57172U 23091G   26053.82071431  .00007817  00000-0  37207-3 0  9994
2 57172  97.5210 112.9875 0014000 153.2065 206.9896 15.19348215146637
CubeBel-2 (EU11S)
1 57175U 23091K   26053.82592390  .00015133  00000-0  58550-3 0  9993
2 57175  97.5202 116.1819 0011348 153.1001 207.0828 15.26240040146841
RS-38S
1 57189U 23091Z   26053.87536916  .00021567  00000-0  69567-3 0  9993
2 57189  97.5225 121.3256 0009096 117.2108 243.0061 15.32134280147160
SONATE-2
1 59112U 24043Q   26053.62383421  .00041959  00000-0  74498-3 0  9999
2 59112  97.5383 197.8452 0007851 262.1206  97.9154 15.50065627110094
MO-122
1 60209U 24125G   26053.81436434  .00050831  00000-0  83613-3 0  9991
2 60209  97.2470 269.5154 0011292 282.8184  77.1807 15.52139846 91765
GRBBeta
1 60237U 24128C   26053.69840759  .00005151  00000-0  35930-3 0  9994
2 60237  61.9887 257.6587 0052836 111.2623 249.4123 15.05583295 89026
Curium One
1 60242U 24128H   26053.72741147  .00010533  00000-0  62895-3 0  9995
2 60242  61.9777 250.5852 0052634 108.3200 252.3630 15.10442397 89154
ROBUSTA-3A
1 60243U 24128J   26053.69760624  .00008278  00000-0  50689-3 0  9994
2 60243  61.9855 252.5571 0053272 105.6624 255.0357 15.09736080 89127
CatSat
1 60246U 24125J   26053.56053228  .00050221  00000-0  97263-3 0  9999
2 60246  97.2234 265.4750 0027798 245.0226 114.8136 15.47132222 89606
HYPERVIEW-1G (RS66S)
1 61772U 24199AP  26053.78061789  .00066781  00000-0  95991-3 0  9994
2 61772  97.3111 289.4862 0008472 349.9186  10.1898 15.55828046116781
AO-123
1 61781U 24199AY  26053.87266270  .00011281  00000-0  34710-3 0  9993
2 61781  97.3174 283.5968 0014414   5.7494 354.3911 15.33722177116394
JINJUSat 1B
1 63210U 25052A   26053.68529717  .00020138  00000-0  70423-3 0  9990
2 63210  97.4136 310.5213 0005107 113.9813 246.1963 15.29557325 52572
NUSHSAT 1
1 63211U 25052B   26053.68470073  .00023933  00000-0  79637-3 0  9993
2 63211  97.4116 310.7664 0004951 115.9782 244.1970 15.31137328 52594
TEVEL2-4
1 63213U 25052D   26053.65725653  .00022966  00000-0  78645-3 0  9992
2 63213  97.4035 310.1291 0003830 124.0634 236.0971 15.30219603 52573
TEVEL2-5
1 63214U 25052E   26053.66707285  .00022644  00000-0  77817-3 0  9998
2 63214  97.4037 310.1146 0003801 124.6110 235.5489 15.30107813 52575
TEVEL2-6
1 63215U 25052F   26053.67648957  .00022311  00000-0  76776-3 0  9994
2 63215  97.4035 310.1106 0003928 125.2302 234.9307 15.30065930 52575
TEVEL2-1
1 63217U 25052H   26053.86696441  .00022393  00000-0  77991-3 0  9998
2 63217  97.4011 310.0465 0003581 135.5936 224.5592 15.29674086 52599
TEVEL2-3
1 63218U 25052J   26053.66863144  .00021914  00000-0  76279-3 0  9999
2 63218  97.4016 309.8594 0003556 136.6253 223.5268 15.29697958 52569
TEVEL2-2
1 63219U 25052K   26053.67139588  .00021959  00000-0  76505-3 0  9990
2 63219  97.4015 309.8525 0003542 137.4446 222.7069 15.29667080 52564
TEVEL2-9
1 63237U 25052AD  26053.64320875  .00020635  00000-0  75642-3 0  9999
2 63237  97.4075 309.4203 0006312 170.4312 189.7048 15.28000924 52517
TEVEL2-7
1 63238U 25052AE  26053.66544918  .00020493  00000-0  75590-3 0  9992
2 63238  97.4079 309.3985 0006473 170.6268 189.5094 15.27797233 52512
TEVEL2-8
1 63239U 25052AF  26053.67225087  .00020158  00000-0  74415-3 0  9990
2 63239  97.4075 309.3865 0006314 171.3419 188.7930 15.27774300 52516
HYDRA-W
1 63490U 25052BL  26053.69442675  .00174371  00000-0  23408-2 0  9997
2 63490  97.3960 314.2363 0007416 135.8808 224.3040 15.57304430 52858
HADES-ICM (SO-125)
1 63492U 25052BN  26053.82887867  .00132478  00000-0  21193-2 0  9991
2 63492  97.3980 313.7832 0006858 144.1468 216.0246 15.52646680 52836
RSP-03
1 65732U 98067XL  26047.27951905  .10199253  12460-4  79249-3 0  9991
2 65732  51.6061 154.7117 0006246 319.9198  40.1367 16.39378610 23558
BOTAN
1 65942U 98067XP  26052.59975990  .00609668  16728-3  14362-2 0  9994
2 65942  51.6138 134.8513 0009860   1.0978 359.0050 15.96170388 21031
CEVROSAT1
1 66309U 25248S   26053.24101273  .00005481  00000-0  26969-3 0  9994
2 66309  45.4064  17.4522 0002055 132.8496 227.2563 15.19074970 17025
SPIRONE
1 66657U 25274H   26053.60460669  .00003220  00000-0  31498-3 0  9998
2 66657  97.7427 344.6188 0013393  41.3012 318.9218 14.92960114 13128
K-HERO
1 66660U 25274L   26053.57570494  .00002391  00000-0  23249-3 0  9999
2 66660  97.7438 344.6639 0015421  44.6499 315.5960 14.93427385 13120
SNUGLITE-III DURI
1 66661U 25274M   26053.76948023  .00002546  00000-0  24659-3 0  9996
2 66661  97.7435 344.8681 0016059  45.0406 315.2113 14.93525640 13151
SilverSat
1 66909U 98067XV  26053.61737772  .00163517  00000-0  14932-2 0  9990
2 66909  51.6254 141.7563 0004503 355.2095   4.8857 15.66796525 12820
SAKHACUBE-CHOLBON
1 67290U 25313AU  26053.76553086  .00013615  00000-0  58915-3 0  9991
2 67290  97.4030 130.3760 0010363  45.1927 315.0151 15.22503911  8553
QMR-KWT
1 67291U 25313AV  26053.75851906  .00018310  00000-0  78073-3 0  9997
2 67291  97.4029 130.3849 0009982  44.5388 315.6649 15.22941521  8550
IO-86
1 40931U          25360.30710720  .00000000  00000-0  12800-3 0    00
2 40931   6.0006 332.5373 0012733 338.8432   8.1437 14.79075515    01
